Time,TemperatureF,DewpointF,PressureIn,WindDirection,WindDirectionDegrees,WindSpeedMPH,WindSpeedGustMPH,Humidity,HourlyPrecipIn,Conditions,Clouds,dailyrainin,SoftwareType,DateUTC
2013-01-26 00:03:00,12.0,-2.0,30.05,South,190,0.0,0.0,52,0.00,,,0.00,,2013-01-26 05:03:00,
2013-01-26 00:12:00,12.0,-2.0,30.05,South,190,0.0,0.0,52,0.00,,,0.00,,2013-01-26 05:12:00,
2013-01-26 00:23:00,12.0,-3.0,30.05,South,190,0.0,0.0,51,0.00,,,0.00,,2013-01-26 05:23:00,
2013-01-26 00:33:00,11.0,-3.0,30.04,South,190,0.0,0.0,52,0.00,,,0.00,,2013-01-26 05:33:00,
2013-01-26 00:42:00,11.0,-3.0,30.04,South,190,0.0,0.0,52,0.00,,,0.00,,2013-01-26 05:42:00,
2013-01-26 00:52:00,11.0,-4.0,30.05,South,190,0.0,0.0,50,0.00,,,0.00,,2013-01-26 05:52:00,
2013-01-26 01:03:00,11.0,-4.0,30.05,South,190,0.0,0.0,51,0.00,,,0.00,,2013-01-26 06:03:00,
2013-01-26 01:12:00,11.0,-4.0,30.05,South,190,0.0,0.0,51,0.00,,,0.00,,2013-01-26 06:12:00,
2013-01-26 01:21:00,11.0,-4.0,30.06,South,190,0.0,0.0,51,0.00,,,0.00,,2013-01-26 06:21:00,
2013-01-26 01:32:00,11.0,-3.0,30.06,South,190,0.0,0.0,52,0.00,,,0.00,,2013-01-26 06:32:00,
2013-01-26 01:42:00,11.0,-3.0,30.06,South,190,0.0,0.0,52,0.00,,,0.00,,2013-01-26 06:42:00,
2013-01-26 01:52:00,11.0,-3.0,30.06,South,190,0.0,0.0,53,0.00,,,0.00,,2013-01-26 06:52:00,
2013-01-26 02:02:00,10.0,-4.0,30.05,South,190,0.0,0.0,53,0.00,,,0.00,,2013-01-26 07:02:00,
2013-01-26 02:12:00,10.0,-4.0,30.05,South,190,0.0,0.0,53,0.00,,,0.00,,2013-01-26 07:12:00,
2013-01-26 02:22:00,10.0,-4.0,30.05,South,190,0.0,0.0,53,0.00,,,0.00,,2013-01-26 07:22:00,
2013-01-26 02:33:00,10.0,-3.0,30.05,South,190,0.0,0.0,55,0.00,,,0.00,,2013-01-26 07:33:00,
2013-01-26 02:42:00,10.0,-3.0,30.05,South,190,0.0,0.0,55,0.00,,,0.00,,2013-01-26 07:42:00,
2013-01-26 02:52:00,10.0,-3.0,30.04,South,190,0.0,0.0,55,0.00,,,0.00,,2013-01-26 07:52:00,
2013-01-26 03:02:00,9.0,-4.0,30.03,South,190,0.0,0.0,55,0.00,,,0.00,,2013-01-26 08:02:00,
2013-01-26 03:11:00,9.0,-4.0,30.03,South,190,0.0,0.0,55,0.00,,,0.00,,2013-01-26 08:11:00,
2013-01-26 03:22:00,9.0,-3.0,30.03,South,190,0.0,0.0,56,0.00,,,0.00,,2013-01-26 08:22:00,
2013-01-26 03:32:00,9.0,-3.0,30.02,South,190,0.0,0.0,57,0.00,,,0.00,,2013-01-26 08:32:00,
2013-01-26 03:42:00,9.0,-3.0,30.02,South,190,0.0,0.0,57,0.00,,,0.00,,2013-01-26 08:42:00,
2013-01-26 03:53:00,9.0,-3.0,30.02,South,190,0.0,0.0,57,0.00,,,0.00,,2013-01-26 08:53:00,
2013-01-26 04:02:00,9.0,-3.0,30.02,South,190,0.0,0.0,57,0.00,,,0.00,,2013-01-26 09:02:00,
2013-01-26 04:11:00,9.0,-3.0,30.02,South,190,0.0,0.0,57,0.00,,,0.00,,2013-01-26 09:11:00,
2013-01-26 04:22:00,9.0,-3.0,30.01,South,190,0.0,0.0,57,0.00,,,0.00,,2013-01-26 09:22:00,
2013-01-26 04:32:00,9.0,-2.0,30.01,South,190,0.0,0.0,59,0.00,,,0.00,,2013-01-26 09:32:00,
2013-01-26 04:42:00,9.0,-2.0,30.01,South,190,0.0,0.0,59,0.00,,,0.00,,2013-01-26 09:42:00,
2013-01-26 04:51:00,9.0,-3.0,30.00,South,190,0.0,0.0,58,0.00,,,0.00,,2013-01-26 09:51:00,
2013-01-26 05:01:00,9.0,-2.0,29.99,South,190,0.0,0.0,60,0.00,,,0.00,,2013-01-26 10:01:00,
2013-01-26 05:12:00,9.0,-2.0,29.99,South,190,0.0,0.0,60,0.00,,,0.00,,2013-01-26 10:12:00,
2013-01-26 05:21:00,8.0,-3.0,29.99,South,190,0.0,0.0,61,0.00,,,0.00,,2013-01-26 10:21:00,
2013-01-26 05:32:00,8.0,-3.0,30.00,South,190,0.0,0.0,61,0.00,,,0.00,,2013-01-26 10:32:00,
2013-01-26 05:42:00,8.0,-3.0,30.00,South,190,0.0,0.0,61,0.00,,,0.00,,2013-01-26 10:42:00,
2013-01-26 05:52:00,8.0,-3.0,30.00,South,190,0.0,0.0,61,0.00,,,0.00,,2013-01-26 10:52:00,
2013-01-26 06:02:00,7.0,-4.0,30.01,South,190,0.0,0.0,60,0.00,,,0.00,,2013-01-26 11:02:00,
2013-01-26 06:12:00,7.0,-4.0,30.01,South,190,0.0,0.0,60,0.00,,,0.00,,2013-01-26 11:12:00,
2013-01-26 06:22:00,7.0,-4.0,30.01,South,190,0.0,0.0,59,0.00,,,0.00,,2013-01-26 11:22:00,
2013-01-26 06:32:00,7.0,-5.0,30.01,South,190,0.0,0.0,58,0.00,,,0.00,,2013-01-26 11:32:00,
2013-01-26 06:42:00,7.0,-5.0,30.01,South,190,0.0,0.0,58,0.00,,,0.00,,2013-01-26 11:42:00,
2013-01-26 06:52:00,7.0,-5.0,30.01,South,190,0.0,0.0,58,0.00,,,0.00,,2013-01-26 11:52:00,
2013-01-26 07:02:00,7.0,-4.0,30.01,South,190,0.0,0.0,60,0.00,,,0.00,,2013-01-26 12:02:00,
2013-01-26 07:12:00,7.0,-4.0,30.01,South,190,0.0,0.0,60,0.00,,,0.00,,2013-01-26 12:12:00,
2013-01-26 07:23:00,6.0,-5.0,30.01,South,190,0.0,0.0,60,0.00,,,0.00,,2013-01-26 12:23:00,
2013-01-26 07:33:00,6.0,-5.0,30.01,South,190,0.0,0.0,61,0.00,,,0.00,,2013-01-26 12:33:00,
2013-01-26 07:42:00,6.0,-5.0,30.01,South,190,0.0,0.0,61,0.00,,,0.00,,2013-01-26 12:42:00,
2013-01-26 07:52:00,6.0,-4.0,30.02,South,190,0.0,0.0,62,0.00,,,0.00,,2013-01-26 12:52:00,
2013-01-26 08:04:00,6.0,-4.0,30.03,South,190,0.0,0.0,62,0.00,,,0.00,,2013-01-26 13:04:00,
2013-01-26 08:12:00,6.0,-4.0,30.03,South,190,0.0,0.0,62,0.00,,,0.00,,2013-01-26 13:12:00,
2013-01-26 08:22:00,7.0,-3.0,30.03,South,190,0.0,0.0,62,0.00,,,0.00,,2013-01-26 13:22:00,
2013-01-26 08:33:00,8.0,-4.0,30.03,South,190,0.0,0.0,58,0.00,,,0.00,,2013-01-26 13:33:00,
2013-01-26 08:42:00,8.0,-4.0,30.03,South,190,0.0,0.0,58,0.00,,,0.00,,2013-01-26 13:42:00,
2013-01-26 08:52:00,9.0,-3.0,30.03,South,190,0.0,0.0,57,0.00,,,0.00,,2013-01-26 13:52:00,
2013-01-26 09:03:00,10.0,-3.0,30.02,South,190,0.0,0.0,55,0.00,,,0.00,,2013-01-26 14:03:00,
2013-01-26 09:12:00,10.0,-3.0,30.02,South,190,0.0,0.0,55,0.00,,,0.00,,2013-01-26 14:12:00,
2013-01-26 09:22:00,10.0,-3.0,30.01,South,190,0.0,0.0,54,0.00,,,0.00,,2013-01-26 14:22:00,
2013-01-26 09:32:00,11.0,-3.0,30.01,South,190,0.0,0.0,52,0.00,,,0.00,,2013-01-26 14:32:00,
2013-01-26 09:43:00,11.0,-3.0,30.01,South,190,0.0,0.0,52,0.00,,,0.00,,2013-01-26 14:43:00,
2013-01-26 09:52:00,12.0,-3.0,30.01,South,190,0.0,0.0,51,0.00,,,0.00,,2013-01-26 14:52:00,
2013-01-26 10:03:00,12.0,-3.0,30.01,South,190,0.0,0.0,49,0.00,,,0.00,,2013-01-26 15:03:00,
2013-01-26 10:12:00,12.0,-3.0,30.01,South,190,0.0,0.0,49,0.00,,,0.00,,2013-01-26 15:12:00,
2013-01-26 10:22:00,13.0,-3.0,30.01,South,190,0.0,0.0,47,0.00,,,0.00,,2013-01-26 15:22:00,
2013-01-26 10:33:00,14.0,-2.0,30.00,South,190,0.0,0.0,47,0.00,,,0.00,,2013-01-26 15:33:00,
2013-01-26 10:43:00,14.0,-2.0,30.00,South,190,0.0,0.0,47,0.00,,,0.00,,2013-01-26 15:43:00,
2013-01-26 10:52:00,14.0,-3.0,30.00,South,190,0.0,0.0,46,0.00,,,0.00,,2013-01-26 15:52:00,
2013-01-26 11:03:00,14.0,-3.0,29.99,South,190,0.0,0.0,46,0.00,,,0.00,,2013-01-26 16:03:00,
2013-01-26 11:12:00,14.0,-3.0,29.99,South,190,0.0,0.0,46,0.00,,,0.00,,2013-01-26 16:12:00,
2013-01-26 11:22:00,15.0,-3.0,29.99,South,190,0.0,0.0,43,0.00,,,0.00,,2013-01-26 16:22:00,
2013-01-26 11:33:00,16.0,-2.0,29.98,South,190,0.0,0.0,43,0.00,,,0.00,,2013-01-26 16:33:00,
2013-01-26 11:43:00,16.0,-2.0,29.98,South,190,0.0,0.0,43,0.00,,,0.00,,2013-01-26 16:43:00,
2013-01-26 11:53:00,16.0,-2.0,29.98,South,190,0.0,0.0,43,0.00,,,0.00,,2013-01-26 16:53:00,
2013-01-26 12:03:00,16.0,-3.0,29.96,South,190,0.0,0.0,42,0.00,,,0.00,,2013-01-26 17:03:00,
2013-01-26 12:13:00,16.0,-3.0,29.96,South,190,0.0,0.0,42,0.00,,,0.00,,2013-01-26 17:13:00,
2013-01-26 12:23:00,17.0,-2.0,29.96,South,190,0.0,0.0,43,0.00,,,0.00,,2013-01-26 17:23:00,
2013-01-26 12:33:00,18.0,-1.0,29.95,South,190,0.0,1.0,42,0.00,,,0.00,,2013-01-26 17:33:00,
2013-01-26 12:42:00,18.0,-1.0,29.95,South,190,0.0,1.0,42,0.00,,,0.00,,2013-01-26 17:42:00,
2013-01-26 12:52:00,17.0,-3.0,29.95,South,190,0.0,0.0,40,0.00,,,0.00,,2013-01-26 17:52:00,
2013-01-26 13:03:00,17.0,-4.0,29.94,South,190,0.0,0.0,39,0.00,,,0.00,,2013-01-26 18:03:00,
2013-01-26 13:12:00,17.0,-4.0,29.94,South,190,0.0,0.0,39,0.00,,,0.00,,2013-01-26 18:12:00,
2013-01-26 13:22:00,18.0,-3.0,29.94,South,190,0.0,0.0,38,0.00,,,0.00,,2013-01-26 18:22:00,
2013-01-26 13:33:00,19.0,-3.0,29.94,South,190,0.0,0.0,37,0.00,,,0.00,,2013-01-26 18:33:00,
2013-01-26 13:42:00,19.0,-3.0,29.94,South,190,0.0,0.0,37,0.00,,,0.00,,2013-01-26 18:42:00,
2013-01-26 13:52:00,19.0,-4.0,29.93,South,190,0.0,0.0,36,0.00,,,0.00,,2013-01-26 18:52:00,
2013-01-26 14:03:00,18.0,-4.0,29.93,South,190,0.0,0.0,37,0.00,,,0.00,,2013-01-26 19:03:00,
2013-01-26 14:12:00,18.0,-4.0,29.93,South,190,0.0,0.0,37,0.00,,,0.00,,2013-01-26 19:12:00,
2013-01-26 14:22:00,18.0,-4.0,29.93,South,190,0.0,0.0,36,0.00,,,0.00,,2013-01-26 19:22:00,
2013-01-26 14:33:00,18.0,-4.0,29.93,South,190,0.0,0.0,37,0.00,,,0.00,,2013-01-26 19:33:00,
2013-01-26 14:42:00,18.0,-4.0,29.93,South,190,0.0,0.0,37,0.00,,,0.00,,2013-01-26 19:42:00,
2013-01-26 14:52:00,18.0,-5.0,29.93,South,190,0.0,0.0,35,0.00,,,0.00,,2013-01-26 19:52:00,
2013-01-26 15:02:00,19.0,-4.0,29.93,South,190,0.0,0.0,36,0.00,,,0.00,,2013-01-26 20:02:00,
2013-01-26 15:11:00,19.0,-4.0,29.93,South,190,0.0,0.0,36,0.00,,,0.00,,2013-01-26 20:11:00,
2013-01-26 15:22:00,19.0,-4.0,29.93,South,190,0.0,0.0,36,0.00,,,0.00,,2013-01-26 20:22:00,
2013-01-26 15:32:00,19.0,-4.0,29.93,South,190,0.0,0.0,36,0.00,,,0.00,,2013-01-26 20:32:00,
2013-01-26 16:32:00,18.0,-4.0,29.95,South,190,0.0,0.0,36,0.00,,,0.00,,2013-01-26 21:32:00,
2013-01-26 16:43:00,18.0,-4.0,29.95,South,190,0.0,0.0,36,0.00,,,0.00,,2013-01-26 21:43:00,
2013-01-26 16:52:00,18.0,-5.0,29.96,South,190,0.0,0.0,35,0.00,,,0.00,,2013-01-26 21:52:00,
2013-01-26 17:02:00,17.0,-5.0,29.97,South,190,0.0,0.0,37,0.00,,,0.00,,2013-01-26 22:02:00,
2013-01-26 17:12:00,17.0,-5.0,29.97,South,190,0.0,0.0,37,0.00,,,0.00,,2013-01-26 22:12:00,
2013-01-26 17:22:00,17.0,-4.0,29.97,South,190,0.0,0.0,38,0.00,,,0.00,,2013-01-26 22:22:00,
2013-01-26 17:32:00,16.0,-3.0,29.98,South,190,0.0,0.0,41,0.00,,,0.00,,2013-01-26 22:32:00,
2013-01-26 17:42:00,16.0,-3.0,29.98,South,190,0.0,0.0,41,0.00,,,0.00,,2013-01-26 22:42:00,
2013-01-26 17:52:00,15.0,-3.0,29.98,South,190,0.0,0.0,43,0.00,,,0.00,,2013-01-26 22:52:00,
2013-01-26 18:02:00,14.0,-3.0,29.98,South,190,0.0,0.0,46,0.00,,,0.00,,2013-01-26 23:02:00,
2013-01-26 18:12:00,14.0,-3.0,29.98,South,190,0.0,0.0,46,0.00,,,0.00,,2013-01-26 23:12:00,
2013-01-26 18:22:00,13.0,-3.0,29.98,South,190,0.0,0.0,48,0.00,,,0.00,,2013-01-26 23:22:00,
2013-01-26 18:32:00,13.0,-3.0,29.99,South,190,0.0,0.0,49,0.00,,,0.00,,2013-01-26 23:32:00,
2013-01-26 18:42:00,13.0,-3.0,29.99,South,190,0.0,0.0,49,0.00,,,0.00,,2013-01-26 23:42:00,
2013-01-26 18:52:00,13.0,-2.0,30.00,South,190,0.0,0.0,50,0.00,,,0.00,,2013-01-26 23:52:00,
2013-01-26 19:02:00,13.0,-2.0,30.00,South,190,0.0,0.0,51,0.00,,,0.00,,2013-01-27 00:02:00,
2013-01-26 19:12:00,13.0,-2.0,30.00,South,190,0.0,0.0,51,0.00,,,0.00,,2013-01-27 00:12:00,
2013-01-26 19:22:00,13.0,-2.0,30.00,South,190,0.0,0.0,51,0.00,,,0.00,,2013-01-27 00:22:00,
2013-01-26 19:32:00,13.0,-2.0,30.00,South,190,0.0,0.0,51,0.00,,,0.00,,2013-01-27 00:32:00,
2013-01-26 19:42:00,13.0,-2.0,30.00,South,190,0.0,0.0,51,0.00,,,0.00,,2013-01-27 00:42:00,
2013-01-26 19:51:00,12.0,-3.0,30.00,South,190,0.0,0.0,51,0.00,,,0.00,,2013-01-27 00:51:00,
2013-01-26 20:02:00,13.0,-2.0,30.01,South,190,0.0,0.0,51,0.00,,,0.00,,2013-01-27 01:02:00,
2013-01-26 20:11:00,13.0,-2.0,30.01,South,190,0.0,0.0,51,0.00,,,0.00,,2013-01-27 01:11:00,
2013-01-26 20:22:00,12.0,-3.0,30.02,South,190,0.0,0.0,50,0.00,,,0.00,,2013-01-27 01:22:00,
2013-01-26 20:32:00,12.0,-3.0,30.02,South,190,0.0,0.0,50,0.00,,,0.00,,2013-01-27 01:32:00,
2013-01-26 20:42:00,12.0,-3.0,30.02,South,190,0.0,0.0,50,0.00,,,0.00,,2013-01-27 01:42:00,
2013-01-26 20:52:00,12.0,-3.0,30.02,South,190,0.0,0.0,50,0.00,,,0.00,,2013-01-27 01:52:00,
2013-01-26 21:01:00,12.0,-4.0,30.03,South,190,0.0,0.0,48,0.00,,,0.00,,2013-01-27 02:01:00,
2013-01-26 21:12:00,12.0,-4.0,30.03,South,190,0.0,0.0,48,0.00,,,0.00,,2013-01-27 02:12:00,
2013-01-26 21:22:00,12.0,-4.0,30.03,South,190,0.0,0.0,47,0.00,,,0.00,,2013-01-27 02:22:00,
2013-01-26 21:32:00,12.0,-4.0,30.04,South,190,0.0,0.0,47,0.00,,,0.00,,2013-01-27 02:32:00,
2013-01-26 21:42:00,12.0,-4.0,30.04,South,190,0.0,0.0,47,0.00,,,0.00,,2013-01-27 02:42:00,
2013-01-26 21:52:00,12.0,-4.0,30.04,South,190,0.0,0.0,47,0.00,,,0.00,,2013-01-27 02:52:00,
2013-01-26 22:02:00,12.0,-4.0,30.04,South,190,0.0,0.0,47,0.00,,,0.00,,2013-01-27 03:02:00,
2013-01-26 22:11:00,12.0,-4.0,30.04,South,190,0.0,0.0,47,0.00,,,0.00,,2013-01-27 03:11:00,
2013-01-26 22:21:00,12.0,-5.0,30.04,South,190,0.0,0.0,46,0.00,,,0.00,,2013-01-27 03:21:00,
2013-01-26 22:32:00,12.0,-5.0,30.03,South,190,0.0,0.0,46,0.00,,,0.00,,2013-01-27 03:32:00,
2013-01-26 22:42:00,12.0,-5.0,30.03,South,190,0.0,0.0,46,0.00,,,0.00,,2013-01-27 03:42:00,
2013-01-26 22:51:00,12.0,-5.0,30.03,South,190,0.0,0.0,46,0.00,,,0.00,,2013-01-27 03:51:00,
2013-01-26 23:02:00,12.0,-4.0,30.04,South,190,0.0,0.0,47,0.00,,,0.00,,2013-01-27 04:02:00,
2013-01-26 23:12:00,12.0,-4.0,30.04,South,190,0.0,0.0,47,0.00,,,0.00,,2013-01-27 04:12:00,
2013-01-26 23:22:00,12.0,-4.0,30.04,South,190,0.0,0.0,48,0.00,,,0.00,,2013-01-27 04:22:00,
2013-01-26 23:32:00,12.0,-3.0,30.05,South,190,0.0,0.0,49,0.00,,,0.00,,2013-01-27 04:32:00,
2013-01-26 23:42:00,12.0,-3.0,30.05,South,190,0.0,0.0,49,0.00,,,0.00,,2013-01-27 04:42:00,
2013-01-26 23:52:00,12.0,-3.0,30.05,South,190,0.0,0.0,50,0.00,,,0.00,,2013-01-27 04:52:00,